[[{"header":{"parameterUnit":"m.s-1","parameterCategory":1,"la1":30.2991,"la2":30.254,"lo1":-89.0895,"lo2":-89.0444,"dy":0.0017,"dx":0.0017,"nx":28,"ny":28,"refTime":"2025-04-11T03:00:00:Z","depth":0,"parameterNumber":2,"parameterNumberName":"U-component_of_WINDS"},"data":[0,0,0,0,0,0,0,0,0,0,0,0,0,0,0,0,0,0,0,0,0,0,0,0,0,0,0,0,0,0,0,0,0,0,0,0,0,0,0,0,0,0,0,0,0,0,0,0,0,0,0,0,0,0,0,0,0,0,1.5715,1.5715,0,1.576,1.5761,1.5761,1.5744,1.5743,1.5742,1.5741,1.5788,1.579,1.5792,0,0,0,0,0,0,0,0,0,0,0,0,0,1.5615,1.5617,1.5715,1.5715,1.5716,1.576,1.5761,1.5761,1.5744,1.5743,1.5741,1.574,1.5787,1.579,1.5793,0,0,0,0,0,0,0,0,0,0,0,0,0,1.5659,1.5617,1.5715,1.5713,1.5713,1.576,1.5761,1.5761,1.5744,1.5743,1.5741,1.574,1.5786,1.579,1.5793,1.5845,0,0,1.5803,1.5805,0,0,0,0,0,0,0,0,1.5656,1.5663,1.5712,1.5713,1.5713,1.5745,1.5743,1.5789,1.5745,1.5732,1.5741,1.5739,1.5775,1.5779,1.5791,1.5847,1.5849,1.5803,1.5806,1.5807,1.5808,0,0,0,0,0,0,0,1.5653,1.5661,1.5733,1.5713,1.5714,1.571,1.5714,1.5751,1.5762,1.5733,1.5732,1.5738,1.5775,1.5788,1.5792,1.585,1.5803,1.5806,1.5808,1.581,1.5951,1.5953,0,0,0,0,0,0,1.565,1.5658,1.5731,1.5734,1.568,1.5713,1.5718,1.5736,1.5761,1.5764,1.5739,1.5737,1.5783,1.5788,1.5794,1.5856,1.5807,1.581,1.5812,1.595,1.5952,1.5954,0,0,0,0,0,0,1.5648,1.5657,1.5729,1.5696,1.5705,1.5716,1.5737,1.5738,1.5751,1.5766,1.5768,1.575,1.5782,1.5789,1.5832,1.5858,1.5812,1.5815,1.5948,1.595,1.5953,1.5982,0,0,0,0,0,0,1.5645,1.5656,1.5676,1.5696,1.5707,1.5767,1.5738,1.574,1.5757,1.5754,1.5777,1.5779,1.5781,1.5827,1.5836,1.5862,1.5817,1.5945,1.5949,1.5952,1.5979,1.5986,1.5991,0,0,0,0,0,1.5642,1.5682,1.5677,1.5686,1.5731,1.5769,1.5775,1.5776,1.5759,1.5779,1.5788,1.5778,1.5854,1.5832,1.5841,1.5869,1.5944,1.5948,1.5952,1.5976,1.5984,1.5991,0,0,0,0,0,0,1.5665,1.5685,1.5679,1.5728,1.5746,1.5766,1.5791,1.5784,1.5809,1.5805,1.5806,1.5811,1.5856,1.5867,1.5842,1.592,1.5896,1.5902,1.5912,1.592,1.5926,1.5922,1.582,0,0,0,0,0,1.5675,1.5703,1.572,1.5761,1.5771,1.5779,1.5796,1.5795,1.5815,1.5823,1.5836,1.5855,1.5884,1.5902,1.5929,1.5981,1.5986,1.6004,1.601,1.6015,1.602,1.6049,1.6057,1.5967,1.5967,1.5967,0,0,1.5698,1.5712,1.573,1.5766,1.5781,1.581,1.5786,1.5818,1.5841,1.5828,1.587,1.588,1.5902,1.595,1.5972,1.596,1.6046,1.602,1.6024,1.6026,1.6054,1.6062,1.607,1.5969,1.5969,1.5968,0,0,1.5754,1.5767,1.5803,1.5819,1.5841,1.5846,1.5855,1.5875,1.5881,1.5923,1.5914,1.5941,1.5989,1.6006,1.602,1.6083,1.6075,1.6091,1.6123,1.6151,1.6158,1.6165,1.6187,1.6195,1.6097,1.6097,1.6097,0,1.5779,1.5823,1.5823,1.5856,1.5872,1.5862,1.5899,1.5913,1.5943,1.5955,1.5942,1.6002,1.6017,1.6068,1.6084,1.6096,1.6106,1.6089,1.6157,1.6163,1.6169,1.6191,1.62,1.6099,1.6098,1.6098,1.6098,0,1.5853,1.5883,1.591,1.5939,1.5958,1.5993,1.5999,1.6019,1.6016,1.6023,1.6066,1.6083,1.6113,1.6125,1.6124,1.6177,1.6169,1.6156,1.6132,1.618,1.62,1.6209,1.6101,1.6101,1.61,1.61,0,0,1.5924,1.5953,1.5963,1.5976,1.6,1.6024,1.6059,1.6088,1.6105,1.6126,1.6155,1.6197,1.6185,1.6202,1.6202,1.6226,1.6275,1.621,1.6211,1.6222,1.6336,1.6346,1.6355,1.627,1.6271,1.6273,1.6334,0,1.5983,1.6043,1.6044,1.61,1.6128,1.6119,1.6149,1.6167,1.6175,1.62,1.6209,1.6238,1.622,1.623,1.6254,1.6264,1.6298,1.626,1.6298,1.6299,1.6293,1.6366,1.6376,1.6433,1.6342,1.6343,1.6344,0,1.6058,1.6082,1.614,1.616,1.6172,1.6199,1.6226,1.6251,1.6272,1.6275,1.6294,1.6291,1.6326,1.6301,1.6351,1.6324,1.634,1.6347,1.635,1.6354,1.6325,1.6372,1.6451,1.646,1.6357,1.6356,1.6355,0,1.6105,1.6151,1.6192,1.6204,1.6228,1.6248,1.6259,1.6278,1.6295,1.6319,1.6331,1.6358,1.6374,1.6396,1.64,1.6381,1.645,1.6424,1.6454,1.6454,1.647,1.6469,1.6553,1.6479,1.6479,1.6479,1.6479,0,1.617,1.6206,1.6214,1.6239,1.6279,1.6281,1.6321,1.633,1.6348,1.6375,1.6368,1.6394,1.6398,1.6425,1.6429,1.647,1.6476,1.6481,1.6481,1.6482,1.6481,1.6492,1.6488,1.6481,1.6481,1.648,1.648,0,1.6229,1.6236,1.628,1.6299,1.6305,1.6334,1.6351,1.6375,1.6382,1.6417,1.6425,1.6436,1.6467,1.6474,1.6511,1.6513,1.6562,1.6559,1.6555,1.6555,1.6585,1.6582,1.6679,1.6692,1.661,1.661,1.6611,0,1.627,1.6298,1.6321,1.6338,1.635,1.6379,1.6397,1.6399,1.6418,1.6444,1.6466,1.6496,1.6521,1.6572,1.6583,1.6612,1.6609,1.6641,1.6613,1.6613,1.661,1.6609,1.6612,1.6647,1.6648,1.6648,1.6649,0,1.6343,1.6345,1.6371,1.6398,1.6419,1.6441,1.6461,1.6476,1.6482,1.6504,1.6535,1.6555,1.6593,1.6623,1.6652,1.6664,1.6658,1.6658,1.6666,1.6667,1.6664,1.6666,1.657,1.6655,1.6655,1.6654,1.6654,1.6654,1.6395,1.6419,1.6438,1.6468,1.6483,1.6503,1.6527,1.6537,1.6563,1.6594,1.6594,1.6629,1.665,1.6687,1.6701,1.6729,1.6719,1.6731,1.6734,1.6737,1.674,1.6659,1.6734,1.6734,1.6734,1.6734,1.6734,0,1.6467,1.6479,1.6506,1.6535,1.6558,1.655,1.6572,1.6592,1.6623,1.6642,1.6667,1.6704,1.6734,1.6748,1.6777,1.6797,1.6795,1.6805,1.6803,1.6806,1.6747,1.6737,1.6806,1.6806,1.6806,1.6806,1.6806,1.6806,1.6507,1.6548,1.6552,1.6601,1.6613,1.6647,1.6661,1.6679,1.6694,1.6736,1.676,1.6769,1.6787,1.6818,1.6845,1.6848,1.686,1.6871,1.6873,1.6818,1.6811,1.6804,1.6794,1.6873,1.6873,1.693,1.693,1.6931]},{"header":{"parameterUnit":"m.s-1","parameterCategory":1,"la1":30.2991,"la2":30.254,"lo1":-89.0895,"lo2":-89.0444,"dy":0.0017,"dx":0.0017,"nx":28,"ny":28,"refTime":"2025-04-11T03:00:00:Z","depth":0,"parameterNumber":3,"parameterNumberName":"V-component_of_WINDS"},"data":[0,0,0,0,0,0,0,0,0,0,0,0,0,0,0,0,0,0,0,0,0,0,0,0,0,0,0,0,0,0,0,0,0,0,0,0,0,0,0,0,0,0,0,0,0,0,0,0,0,0,0,0,0,0,0,0,0,0,-5.3319,-5.3321,0,-5.3512,-5.3514,-5.3516,-5.3517,-5.3514,-5.3512,-5.3509,-5.3707,-5.3714,-5.3721,0,0,0,0,0,0,0,0,0,0,0,0,0,-5.2952,-5.2959,-5.3319,-5.3322,-5.3324,-5.3512,-5.3514,-5.3517,-5.3517,-5.3514,-5.3511,-5.3508,-5.3704,-5.3713,-5.3722,0,0,0,0,0,0,0,0,0,0,0,0,0,-5.3125,-5.2961,-5.3319,-5.3347,-5.3351,-5.3511,-5.3514,-5.3518,-5.3518,-5.3514,-5.351,-5.3507,-5.3701,-5.3712,-5.3723,-5.3868,0,0,-5.3758,-5.3763,0,0,0,0,0,0,0,0,-5.3115,-5.3138,-5.334,-5.3345,-5.335,-5.3487,-5.3457,-5.3635,-5.3519,-5.3455,-5.3509,-5.3505,-5.3636,-5.3653,-5.3697,-5.3878,-5.3886,-5.3759,-5.3766,-5.3771,-5.3774,0,0,0,0,0,0,0,-5.3103,-5.313,-5.3395,-5.3343,-5.3349,-5.335,-5.337,-5.3491,-5.3564,-5.346,-5.346,-5.3483,-5.3638,-5.3686,-5.3702,-5.3889,-5.3759,-5.3769,-5.3776,-5.378,-5.42,-5.4204,0,0,0,0,0,0,-5.3085,-5.312,-5.3389,-5.3401,-5.3221,-5.3359,-5.3382,-5.3447,-5.3563,-5.3577,-5.3486,-5.3482,-5.3669,-5.3689,-5.3709,-5.3888,-5.3771,-5.3781,-5.3788,-5.4196,-5.4201,-5.4206,0,0,0,0,0,0,-5.3077,-5.3109,-5.3382,-5.3261,-5.3296,-5.337,-5.3442,-5.3452,-5.35,-5.3583,-5.3596,-5.3522,-5.3667,-5.3693,-5.3829,-5.3895,-5.3787,-5.3797,-5.4191,-5.4197,-5.4203,-5.4247,0,0,0,0,0,0,-5.3067,-5.3106,-5.3162,-5.3262,-5.3302,-5.3499,-5.3446,-5.3459,-5.352,-5.3517,-5.3619,-5.3633,-5.3666,-5.3812,-5.384,-5.3909,-5.3806,-5.4185,-5.4194,-5.4201,-5.424,-5.4254,-5.4266,0,0,0,0,0,-5.3054,-5.3166,-5.3165,-5.3197,-5.3373,-5.3503,-5.3525,-5.3561,-5.3525,-5.3582,-5.3635,-5.363,-5.3883,-5.3826,-5.3858,-5.393,-5.4181,-5.4191,-5.4201,-5.4234,-5.4251,-5.4266,0,0,0,0,0,0,-5.3072,-5.318,-5.318,-5.3328,-5.3406,-5.3502,-5.3575,-5.3578,-5.3668,-5.3661,-5.3701,-5.3725,-5.3861,-5.3909,-5.3844,-5.4078,-5.4027,-5.4044,-5.4042,-5.4059,-5.4072,-5.4058,-5.3815,0,0,0,0,0,-5.3093,-5.3189,-5.3278,-5.34,-5.3439,-5.3501,-5.3558,-5.3579,-5.3662,-5.3695,-5.3758,-5.3838,-5.3936,-5.4,-5.4094,-5.4246,-5.4269,-5.4311,-5.4324,-5.4335,-5.4349,-5.4435,-5.4456,-5.4238,-5.4237,-5.4237,0,0,-5.3138,-5.3209,-5.3267,-5.3406,-5.3469,-5.3568,-5.3529,-5.3635,-5.3709,-5.3711,-5.3844,-5.3893,-5.3986,-5.4131,-5.4198,-5.4175,-5.4414,-5.4347,-5.4355,-5.4364,-5.4447,-5.4468,-5.4486,-5.4244,-5.4243,-5.4242,0,0,-5.3271,-5.3333,-5.3443,-5.3507,-5.3604,-5.3644,-5.367,-5.3766,-5.3799,-5.3933,-5.3938,-5.4026,-5.4193,-5.426,-5.4315,-5.4474,-5.4473,-5.4503,-5.4573,-5.4656,-5.4673,-5.4689,-5.4747,-5.4768,-5.4517,-5.4517,-5.4517,0,-5.3315,-5.3465,-5.3499,-5.3607,-5.3668,-5.3674,-5.3786,-5.3847,-5.3969,-5.4011,-5.3984,-5.4195,-5.4257,-5.4419,-5.4458,-5.4502,-5.4534,-5.4493,-5.4668,-5.4684,-5.4699,-5.4755,-5.4777,-5.4521,-5.452,-5.452,-5.4519,0,-5.3515,-5.3618,-5.3695,-5.3814,-5.3884,-5.3993,-5.4045,-5.4111,-5.4125,-5.4169,-5.4306,-5.4381,-5.4492,-5.4531,-5.4546,-5.4696,-5.4679,-5.4659,-5.461,-5.4722,-5.4776,-5.4798,-5.4525,-5.4524,-5.4523,-5.4522,0,0,-5.3666,-5.3803,-5.3831,-5.3885,-5.3992,-5.4073,-5.4182,-5.4291,-5.4348,-5.4431,-5.4525,-5.4667,-5.465,-5.4713,-5.4735,-5.4807,-5.4931,-5.4779,-5.4782,-5.4807,-5.5104,-5.512,-5.5144,-5.493,-5.4934,-5.4938,-5.5097,0,-5.3813,-5.4008,-5.4042,-5.4213,-5.431,-5.4317,-5.4413,-5.4489,-5.4532,-5.4621,-5.4668,-5.4769,-5.4737,-5.4775,-5.4847,-5.4901,-5.4992,-5.4889,-5.5019,-5.5024,-5.4998,-5.5172,-5.5189,-5.5336,-5.5118,-5.5121,-5.5124,0,-5.401,-5.4099,-5.428,-5.4375,-5.4417,-5.4502,-5.4605,-5.4689,-5.4776,-5.4802,-5.4873,-5.4887,-5.5002,-5.4946,-5.5105,-5.5035,-5.509,-5.5124,-5.513,-5.5146,-5.5082,-5.5194,-5.5383,-5.5406,-5.5157,-5.5154,-5.5152,0,-5.4105,-5.427,-5.44,-5.4446,-5.456,-5.462,-5.467,-5.4753,-5.4816,-5.4906,-5.4948,-5.5049,-5.5106,-5.5184,-5.5225,-5.518,-5.5383,-5.5329,-5.5409,-5.5408,-5.5453,-5.545,-5.5656,-5.5484,-5.5484,-5.5484,-5.5483,0,-5.4266,-5.4377,-5.4445,-5.4525,-5.465,-5.4688,-5.4811,-5.4859,-5.4933,-5.5023,-5.5035,-5.5119,-5.5168,-5.5259,-5.5292,-5.542,-5.5445,-5.547,-5.5478,-5.5471,-5.5468,-5.5509,-5.5501,-5.5489,-5.5488,-5.5487,-5.5486,0,-5.4395,-5.4444,-5.4587,-5.4683,-5.4709,-5.4797,-5.4879,-5.4958,-5.5,-5.5114,-5.5143,-5.521,-5.5319,-5.5368,-5.5501,-5.5523,-5.567,-5.567,-5.5642,-5.5645,-5.5723,-5.5716,-5.5964,-5.5999,-5.5802,-5.5804,-5.5805,0,-5.4496,-5.4581,-5.4686,-5.4748,-5.48,-5.4898,-5.4963,-5.5004,-5.5071,-5.5177,-5.5243,-5.5352,-5.5442,-5.5615,-5.5676,-5.5779,-5.5782,-5.5862,-5.5798,-5.5788,-5.5786,-5.5782,-5.5792,-5.5874,-5.5876,-5.5878,-5.5879,0,-5.467,-5.4691,-5.4784,-5.4887,-5.4964,-5.5047,-5.5128,-5.5177,-5.5231,-5.5306,-5.5418,-5.5487,-5.5624,-5.5733,-5.584,-5.5891,-5.5896,-5.5898,-5.5923,-5.5918,-5.5899,-5.5913,-5.5676,-5.5893,-5.5892,-5.5891,-5.589,-5.5889,-5.479,-5.4867,-5.4954,-5.5058,-5.5123,-5.5198,-5.5277,-5.533,-5.5424,-5.5539,-5.5557,-5.5676,-5.5762,-5.5905,-5.5961,-5.6055,-5.6036,-5.6071,-5.608,-5.6089,-5.6095,-5.5882,-5.6075,-5.6074,-5.6074,-5.6074,-5.6073,0,-5.4968,-5.5023,-5.5119,-5.5232,-5.5314,-5.5309,-5.5399,-5.5468,-5.5573,-5.5652,-5.574,-5.5869,-5.5975,-5.6044,-5.6151,-5.6213,-5.6218,-5.624,-5.6237,-5.625,-5.6104,-5.6074,-5.6235,-5.6235,-5.6235,-5.6235,-5.6235,-5.6235,-5.507,-5.5201,-5.5231,-5.5395,-5.545,-5.5568,-5.562,-5.569,-5.5753,-5.5897,-5.5985,-5.6029,-5.6105,-5.6217,-5.6314,-5.6332,-5.6372,-5.6396,-5.6413,-5.6276,-5.626,-5.6244,-5.6215,-5.6404,-5.6404,-5.6551,-5.6552,-5.6553]}]]